Simultaneous Nadir Overpasses (SNOs) Predictions

Prediction of SNOs between METOP-A and NPP Satellite Orbit:

Table of predicted SNOs for the next 14.0 days since TLE Epoch: 3/9/2014
Index Date (METOP-A) Time (METOP-A) Lat,Lon (METOP-A) SZA (METOP-A ) Date (NPP) Time (NPP) Lat,Lon (NPP) SZA (NPP ) Distance(km) Time Diff (sec)
1 03/18/2014 06:32:02 73.78, 75.60 74.83 03/18/2014 06:30:56 73.77, 72.63 74.99 92.20 66
2 03/18/2014 07:22:46 -73.69,-117.30 105.27 03/18/2014 07:21:38 -73.66,-119.79 105.15 78.00 68
3 03/18/2014 08:13:30 73.46, 49.51 74.52 03/18/2014 08:12:19 73.43, 48.06 74.58 45.95 71
4 03/18/2014 09:04:14 -73.36,-143.38 105.59 03/18/2014 09:03:02 -73.37,-144.49 105.51 35.36 72
5 03/18/2014 09:54:58 73.13, 23.44 74.20 03/18/2014 09:53:43 73.13, 23.35 74.23 3.13 75
6 03/18/2014 10:45:40 -73.14,-169.21 105.81 03/18/2014 10:44:27 -73.12,-169.31 105.80 3.67 73
7 03/18/2014 11:36:20 73.10, -1.95 74.15 03/18/2014 11:35:12 73.09, -1.92 74.15 1.90 68
8 03/18/2014 12:27:02 -73.11, 165.40 105.86 03/18/2014 12:25:57 -73.13, 165.30 105.83 3.40 65
9 03/18/2014 13:17:42 73.08, -27.34 74.10 03/18/2014 13:16:42 73.09, -27.31 74.12 1.86 60
10 03/18/2014 14:08:24 -73.09, 140.00 105.91 03/18/2014 14:07:26 -73.08, 140.03 105.91 1.13 58
11 03/18/2014 14:59:03 73.11, -52.63 74.09 03/18/2014 14:58:12 73.10, -52.69 74.10 2.30 51
12 03/18/2014 15:49:46 -73.06, 114.61 105.96 03/18/2014 15:48:56 -73.09, 114.65 105.93 2.68 50
13 03/18/2014 16:40:25 73.08, -78.02 74.04 03/18/2014 16:39:42 73.10, -78.07 74.08 2.97 43
14 03/18/2014 17:31:07 -73.09, 89.33 105.97 03/18/2014 17:30:26 -73.09, 89.26 105.95 2.09 41
15 03/18/2014 18:21:47 73.06,-103.41 73.99 03/18/2014 18:21:11 73.06,-103.35 74.00 2.03 36
16 03/18/2014 19:12:29 -73.07, 63.94 106.02 03/18/2014 19:11:55 -73.05, 63.99 106.03 2.90 34
17 03/18/2014 20:03:08 73.08,-128.70 73.99 03/18/2014 20:02:41 73.06,-128.73 73.98 2.68 27
18 03/18/2014 20:53:51 -73.04, 38.54 106.07 03/18/2014 20:53:25 -73.05, 38.61 106.06 2.20 26
19 03/18/2014 21:44:30 73.06,-154.09 73.94 03/18/2014 21:44:11 73.06,-154.12 73.95 1.23 19
20 03/18/2014 22:35:12 -73.07, 13.26 106.07 03/18/2014 22:34:55 -73.05, 13.22 106.08 1.93 17
21 03/18/2014 23:25:52 73.03,-179.48 73.89 03/18/2014 23:25:40 73.02,-179.39 73.87 3.31 12
22 03/19/2014 00:16:33 -73.04, -12.13 106.12 03/19/2014 00:16:24 -73.06, -12.16 106.10 1.92 9
23 03/19/2014 01:07:13 73.01, 155.13 73.84 03/19/2014 01:07:09 73.02, 155.23 73.85 3.66 4
24 03/19/2014 01:57:55 -73.02, -37.53 106.17 03/19/2014 01:57:53 -73.01, -37.44 106.18 2.99 2
25 03/19/2014 02:48:34 73.03, 129.84 73.83 03/19/2014 02:48:39 73.03, 129.84 73.83 0.67 5
26 03/19/2014 03:39:16 -73.04, -62.81 106.18 03/19/2014 03:39:23 -73.02, -62.82 106.20 3.08 7
27 03/19/2014 04:29:56 73.01, 104.45 73.78 03/19/2014 04:30:09 73.03, 104.46 73.80 2.60 13
28 03/19/2014 05:20:38 -73.02, -88.20 106.23 03/19/2014 05:20:53 -73.02, -88.20 106.23 0.15 15
29 03/19/2014 06:11:17 73.03, 79.17 73.78 03/19/2014 06:11:39 73.04, 79.08 73.78 2.92 22
30 03/19/2014 07:02:00 -73.00,-113.59 106.28 03/19/2014 07:02:23 -73.03,-113.59 106.25 3.38 23
31 03/19/2014 07:52:39 73.01, 53.77 73.73 03/19/2014 07:53:08 72.99, 53.80 73.70 2.34 29
32 03/19/2014 08:43:21 -73.02,-138.88 106.28 03/19/2014 08:43:53 -73.03,-138.97 106.27 3.11 32
33 03/19/2014 09:34:01 72.98, 28.38 73.68 03/19/2014 09:34:38 72.99, 28.42 73.68 1.62 37
34 03/19/2014 10:24:43 -73.00,-164.27 106.33 03/19/2014 10:25:22 -72.98,-164.24 106.35 1.62 39
35 03/19/2014 11:15:22 73.01, 3.10 73.67 03/19/2014 11:16:08 73.00, 3.03 73.65 2.40 46
36 03/19/2014 12:06:05 -72.97, 170.34 106.38 03/19/2014 12:06:52 -72.99, 170.37 106.38 2.17 47
37 03/19/2014 12:56:44 72.99, -22.30 73.62 03/19/2014 12:57:38 73.00, -22.35 73.63 2.62 54
38 03/19/2014 13:47:26 -73.00, 145.05 106.39 03/19/2014 13:48:22 -72.99, 144.99 106.40 2.15 56
39 03/19/2014 14:38:06 72.96, -47.69 73.57 03/19/2014 14:39:07 72.96, -47.63 73.55 2.12 61
40 03/19/2014 15:28:48 -72.97, 119.66 106.44 03/19/2014 15:29:52 -73.00, 119.60 106.42 3.23 64
41 03/19/2014 16:19:27 72.99, -72.97 73.57 03/19/2014 16:20:37 72.96, -73.01 73.53 2.99 70
42 03/19/2014 17:10:10
